[[{"header":{"parameterUnit":"m.s-1","parameterCategory":2,"la1":30.2991,"la2":30.254,"lo1":-89.0895,"lo2":-89.0444,"dy":0.0017,"dx":0.0017,"nx":28,"ny":28,"refTime":"2026-01-30T03:00:00:Z","depth":"0","parameterNumber":2,"parameterNumberName":"U-component_of_CURRENTS"},"data":[0,0,0,0,0,0,0,0,0,0,0,0,0,0,0,0,0,0,0,0,0,0,0,0,0,0,0,0,0,0,0,0,0,0,0,0,0,0,0,0,0,0,0,0,0,0,0,0,0,0,0,0,0,0,0,0,0,0,0.3958,0.3959,0,0.3971,0.3971,0.3971,0.3945,0.3945,0.3944,0.3944,0.3909,0.3909,0.3908,0,0,0,0,0,0,0,0,0,0,0,0,0,0.3908,0.3908,0.3958,0.3959,0.3959,0.3971,0.3971,0.3971,0.3945,0.3945,0.3944,0.3944,0.3909,0.3909,0.3908,0,0,0,0,0,0,0,0,0,0,0,0,0,0.3923,0.3909,0.3958,0.395,0.395,0.3971,0.3971,0.3971,0.3946,0.3945,0.3944,0.3943,0.3909,0.3909,0.3908,0.3921,0,0,0.3906,0.3906,0,0,0,0,0,0,0,0,0.3922,0.3924,0.3951,0.3951,0.3951,0.3958,0.394,0.3953,0.3946,0.3944,0.3944,0.3943,0.3924,0.3922,0.3922,0.3919,0.3917,0.3906,0.3906,0.3905,0.3905,0,0,0,0,0,0,0,0.3921,0.3924,0.396,0.3952,0.3952,0.3945,0.3946,0.3942,0.3935,0.3944,0.3943,0.395,0.3923,0.3923,0.3921,0.3917,0.3906,0.3906,0.3905,0.3905,0.3955,0.3956,0,0,0,0,0,0,0.3927,0.3923,0.396,0.3961,0.3938,0.3947,0.3947,0.3954,0.3936,0.3934,0.395,0.3949,0.3925,0.3922,0.392,0.3957,0.3905,0.3905,0.3904,0.3953,0.3955,0.3957,0,0,0,0,0,0,0.3926,0.393,0.3959,0.3944,0.3948,0.3949,0.3956,0.3955,0.3961,0.3942,0.3938,0.3958,0.3924,0.3921,0.393,0.3955,0.3905,0.3904,0.3951,0.3954,0.3956,0.4017,0,0,0,0,0,0,0.3925,0.393,0.3936,0.3945,0.3949,0.3981,0.3957,0.3956,0.3967,0.3965,0.3948,0.3943,0.3923,0.3931,0.393,0.3953,0.3904,0.3949,0.3952,0.3955,0.4012,0.4021,0.4028,0,0,0,0,0,0.3923,0.3936,0.3936,0.3941,0.3958,0.3983,0.3984,0.3979,0.3969,0.3979,0.397,0.3944,0.395,0.3932,0.393,0.3953,0.3947,0.3951,0.3955,0.4009,0.4019,0.4028,0,0,0,0,0,0,0.3918,0.3936,0.3936,0.3954,0.3972,0.398,0.3989,0.3989,0.399,0.3987,0.3962,0.3958,0.3979,0.3962,0.3942,0.398,0.3947,0.395,0.3988,0.3998,0.4006,0.4026,0.3903,0,0,0,0,0,0.3922,0.3935,0.3954,0.3969,0.398,0.3987,0.3996,0.3999,0.4003,0.4002,0.399,0.3985,0.3994,0.3991,0.3993,0.4009,0.4023,0.4025,0.4033,0.4039,0.4056,0.4099,0.4112,0.397,0.397,0.397,0,0,0.3922,0.3937,0.3942,0.3969,0.398,0.4006,0.399,0.4013,0.4034,0.3999,0.4016,0.4013,0.4007,0.4028,0.4036,0.4014,0.4091,0.4044,0.405,0.4063,0.4105,0.4118,0.4131,0.3972,0.3972,0.3971,0,0,0.3938,0.3947,0.3965,0.3985,0.4014,0.4024,0.4036,0.4052,0.4057,0.4079,0.4066,0.4084,0.4079,0.4089,0.4092,0.4148,0.4136,0.4143,0.419,0.4231,0.4244,0.4254,0.4303,0.4318,0.414,0.414,0.414,0,0.394,0.3964,0.3975,0.4004,0.4023,0.4036,0.4065,0.4082,0.4098,0.4113,0.4092,0.4125,0.4115,0.416,0.4178,0.4166,0.4188,0.415,0.4242,0.4253,0.4263,0.431,0.4325,0.4143,0.4143,0.4142,0.4142,0,0.397,0.3993,0.4009,0.4047,0.4071,0.41,0.4129,0.415,0.4156,0.4174,0.4216,0.4212,0.4233,0.4234,0.422,0.4289,0.4282,0.4251,0.4216,0.4281,0.4327,0.4342,0.4148,0.4147,0.4146,0.4145,0,0,0.3968,0.4019,0.4024,0.4044,0.4096,0.4116,0.4164,0.421,0.4253,0.4263,0.4318,0.4334,0.4337,0.4344,0.4334,0.4365,0.4454,0.434,0.434,0.4387,0.4559,0.4572,0.4589,0.4434,0.4437,0.4439,0.4567,0,0.3989,0.4037,0.4063,0.411,0.4137,0.4169,0.4216,0.4262,0.4302,0.436,0.4375,0.4427,0.4378,0.4402,0.4426,0.4456,0.4495,0.4423,0.4491,0.4494,0.4496,0.4607,0.4604,0.4719,0.4582,0.4584,0.4586,0,0.401,0.404,0.4084,0.4141,0.4157,0.4188,0.4266,0.4314,0.4404,0.4448,0.45,0.4519,0.4584,0.4529,0.4608,0.4564,0.4573,0.4583,0.4588,0.4591,0.4535,0.4631,0.4751,0.4782,0.4608,0.4607,0.4605,0,0.3994,0.4053,0.4083,0.4102,0.4173,0.4197,0.424,0.4332,0.4395,0.4516,0.4577,0.4644,0.4692,0.4715,0.473,0.4681,0.4819,0.4749,0.4771,0.4771,0.478,0.4777,0.4937,0.4813,0.4813,0.4812,0.4812,0,0.4004,0.4027,0.4072,0.4088,0.4136,0.4189,0.4263,0.4335,0.4455,0.454,0.4615,0.4697,0.4741,0.4807,0.4797,0.4854,0.4874,0.4822,0.482,0.4802,0.48,0.4831,0.4853,0.4817,0.4816,0.4815,0.4814,0,0.3983,0.4014,0.4048,0.4107,0.4128,0.4161,0.4266,0.432,0.4454,0.4571,0.4617,0.4769,0.4875,0.4913,0.4988,0.4954,0.4942,0.5002,0.4988,0.4982,0.5004,0.5029,0.4917,0.4747,0.5059,0.506,0.5061,0,0.3979,0.3991,0.4045,0.4054,0.4075,0.4133,0.4168,0.4307,0.4378,0.46,0.4648,0.4817,0.4932,0.5083,0.5109,0.516,0.5005,0.5133,0.5032,0.5055,0.5081,0.482,0.4662,0.5075,0.5076,0.5077,0.5077,0,0.3958,0.397,0.3989,0.4013,0.4035,0.4071,0.4139,0.4205,0.4367,0.4502,0.4675,0.4806,0.5018,0.5109,0.5207,0.522,0.5027,0.5151,0.5187,0.5143,0.4858,0.4678,0.4942,0.5086,0.5085,0.5084,0.5084,0.5083,0.3926,0.3923,0.3934,0.3949,0.3967,0.3974,0.3971,0.408,0.4204,0.4374,0.4587,0.479,0.5091,0.5269,0.5223,0.5292,0.5091,0.5227,0.5268,0.5004,0.4804,0.5095,0.5218,0.5218,0.5218,0.5218,0.5218,0,0.3857,0.3851,0.3864,0.385,0.3815,0.3866,0.3909,0.3897,0.3983,0.4289,0.4461,0.4874,0.5088,0.5269,0.5514,0.5469,0.512,0.5386,0.5071,0.4907,0.5243,0.5214,0.5328,0.5328,0.5328,0.5328,0.5328,0.5328,0.3815,0.3777,0.3776,0.3687,0.3671,0.3577,0.3567,0.3605,0.379,0.4065,0.4346,0.4614,0.5275,0.5867,0.5969,0.5781,0.537,0.5223,0.505,0.5457,0.5444,0.5431,0.5408,0.5562,0.5562,0.45,0.4494,0.449]},{"header":{"parameterUnit":"m.s-1","parameterCategory":2,"la1":30.2991,"la2":30.254,"lo1":-89.0895,"lo2":-89.0444,"dy":0.0017,"dx":0.0017,"nx":28,"ny":28,"refTime":"2026-01-30T03:00:00:Z","depth":"0","parameterNumber":3,"parameterNumberName":"V-component_of_CURRENTS"},"data":[0,0,0,0,0,0,0,0,0,0,0,0,0,0,0,0,0,0,0,0,0,0,0,0,0,0,0,0,0,0,0,0,0,0,0,0,0,0,0,0,0,0,0,0,0,0,0,0,0,0,0,0,0,0,0,0,0,0,0.003,0.0029,0,-0.0036,-0.0037,-0.0038,-0.0096,-0.0096,-0.0096,-0.0097,-0.0185,-0.0187,-0.0189,0,0,0,0,0,0,0,0,0,0,0,0,0,0.003,0.003,0.003,0.0029,0.0028,-0.0036,-0.0037,-0.0038,-0.0095,-0.0096,-0.0097,-0.0097,-0.0184,-0.0186,-0.0189,0,0,0,0,0,0,0,0,0,0,0,0,0,0.0001,0.003,0.003,-0.0006,-0.001,-0.0036,-0.0037,-0.0039,-0.0095,-0.0096,-0.0097,-0.0097,-0.0183,-0.0186,-0.0189,-0.0193,0,0,-0.0198,-0.0199,0,0,0,0,0,0,0,0,0.0003,0.0001,-0.0,-0.0004,-0.0008,-0.0057,-0.007,-0.0091,-0.0095,-0.0065,-0.0097,-0.0098,-0.0142,-0.0148,-0.0162,-0.0197,-0.0201,-0.0198,-0.02,-0.0201,-0.0202,0,0,0,0,0,0,0,0.0005,0.0003,0.0001,-0.0001,-0.0006,-0.0045,-0.005,-0.0074,-0.0101,-0.0068,-0.0072,-0.0075,-0.0145,-0.0159,-0.0164,-0.0202,-0.0198,-0.0201,-0.0202,-0.0203,-0.0247,-0.0247,0,0,0,0,0,0,0.0023,0.0006,0.0003,-0.0,-0.0002,-0.0044,-0.0049,-0.0042,-0.01,-0.0109,-0.0075,-0.0078,-0.0154,-0.0161,-0.0168,-0.0158,-0.0201,-0.0204,-0.0205,-0.0248,-0.0247,-0.0247,0,0,0,0,0,0,0.0023,0.0024,0.0006,0.0002,-0.0003,-0.0043,-0.0035,-0.0043,-0.0053,-0.0105,-0.0115,-0.0076,-0.0155,-0.0164,-0.0181,-0.0162,-0.0205,-0.0208,-0.0248,-0.0248,-0.0247,-0.0149,0,0,0,0,0,0,0.0024,0.0025,0.0033,0.0004,-0.0002,0.0006,-0.0034,-0.0044,-0.0054,-0.0058,-0.0109,-0.0118,-0.0156,-0.0176,-0.0183,-0.0167,-0.021,-0.0249,-0.0248,-0.0247,-0.0153,-0.0145,-0.0138,0,0,0,0,0,0.0024,0.005,0.0034,0.0034,0.0013,0.0008,0.0002,-0.0032,-0.0053,-0.0046,-0.0084,-0.0117,-0.0175,-0.0177,-0.0187,-0.017,-0.025,-0.0248,-0.0247,-0.0156,-0.0147,-0.0138,0,0,0,0,0,0,0.0056,0.0046,0.0028,0.0049,0.0034,-0.0001,0.0001,-0.0022,-0.0047,-0.0054,-0.0107,-0.0118,-0.0129,-0.0162,-0.0164,-0.0182,-0.0219,-0.0219,-0.0147,-0.0138,-0.0131,-0.0103,-0.0212,0,0,0,0,0,0.0067,0.0083,0.0062,0.0077,0.0074,0.0038,0.003,0.0009,-0.0016,-0.0029,-0.0065,-0.0103,-0.0131,-0.0143,-0.0176,-0.0179,-0.0222,-0.0177,-0.0169,-0.0162,-0.0147,-0.0202,-0.0198,-0.0242,-0.0242,-0.0242,0,0,0.0082,0.0079,0.0086,0.0084,0.0066,0.0083,0.0031,0.003,0.0041,-0.0033,-0.0032,-0.0079,-0.0128,-0.0136,-0.0143,-0.0159,-0.0173,-0.0161,-0.0155,-0.0143,-0.02,-0.0196,-0.0192,-0.0242,-0.0242,-0.0242,0,0,0.013,0.0119,0.015,0.0147,0.0135,0.0117,0.0123,0.0095,0.0079,0.0071,0.0019,-0.0011,-0.0052,-0.0082,-0.0103,-0.0072,-0.0135,-0.0086,-0.0021,-0.0074,-0.007,-0.0068,-0.0117,-0.012,-0.0078,-0.0078,-0.0078,0,0.0146,0.0186,0.0157,0.0187,0.0197,0.0142,0.0181,0.0158,0.0127,0.0123,0.0086,0.0021,-0.0024,-0.0031,-0.0024,-0.0054,-0.0095,-0.0048,-0.0063,-0.0061,-0.0061,-0.0112,-0.0116,-0.0073,-0.0074,-0.0074,-0.0075,0,0.022,0.0248,0.0267,0.029,0.0295,0.0318,0.0291,0.0285,0.0252,0.0227,0.0203,0.0129,0.0095,0.0069,0.0032,0.0023,-0.0013,-0.005,-0.0081,-0.005,-0.0106,-0.0112,-0.0066,-0.0068,-0.007,-0.0071,0,0,0.027,0.0313,0.0319,0.0354,0.0355,0.0374,0.0388,0.0393,0.0414,0.0348,0.0362,0.0289,0.0238,0.021,0.0148,0.0099,0.0062,0.0038,0.0033,-0.0002,-0.0053,-0.0083,-0.0094,0.002,0.002,0.002,-0.0094,0,0.0336,0.0425,0.0423,0.0502,0.0548,0.0513,0.0536,0.0527,0.0504,0.0499,0.0403,0.0388,0.0295,0.028,0.0216,0.0105,0.0051,0.0097,-0.0085,-0.009,-0.0114,-0.01,-0.011,-0.0212,-0.0101,-0.0102,-0.0103,0,0.0413,0.0466,0.056,0.0624,0.0639,0.0669,0.0707,0.0726,0.0694,0.0673,0.0625,0.0546,0.047,0.0381,0.0201,0.0234,0.0106,0.0006,-0.0002,-0.0065,-0.0132,-0.0228,-0.0229,-0.0561,-0.0113,-0.0112,-0.0111,0,0.048,0.0564,0.0648,0.067,0.0724,0.0752,0.0777,0.0777,0.0824,0.079,0.0805,0.0681,0.0633,0.0453,0.0236,0.022,0.0029,-0.0023,-0.0173,-0.0178,-0.0238,-0.0246,-0.0573,-0.0149,-0.0149,-0.0148,-0.0148,0,0.0561,0.0627,0.0685,0.0732,0.0836,0.0836,0.0937,0.0938,0.0965,0.1038,0.0904,0.0921,0.0649,0.0501,0.0285,0.0043,0.006,-0.0155,-0.0206,-0.0205,-0.0208,-0.0542,-0.0763,-0.0153,-0.0152,-0.0151,-0.015,0,0.0625,0.0658,0.0767,0.0841,0.0874,0.095,0.1064,0.1138,0.1136,0.1223,0.1219,0.1104,0.091,0.0622,0.0334,0.0125,-0.0339,-0.0207,-0.0185,-0.0231,-0.0676,-0.0888,-0.1307,-0.1515,-0.0388,-0.039,-0.0391,0,0.0667,0.0729,0.0857,0.0935,0.0974,0.1089,0.1175,0.1224,0.1325,0.1348,0.1405,0.1241,0.1175,0.0729,0.031,-0.0081,-0.0416,-0.0345,-0.038,-0.0702,-0.0978,-0.1146,-0.1303,-0.043,-0.0432,-0.0433,-0.0434,0,0.0753,0.0794,0.0886,0.105,0.1159,0.1305,0.1435,0.1544,0.1605,0.1675,0.1739,0.1684,0.1239,0.0857,0.0298,-0.0003,-0.0651,-0.0379,-0.0729,-0.1051,-0.1242,-0.1463,-0.036,-0.0444,-0.0443,-0.0442,-0.0441,-0.0441,0.0815,0.09,0.1022,0.1182,0.1319,0.1501,0.1648,0.1794,0.197,0.2109,0.2022,0.2023,0.1395,0.0639,0.0159,-0.0714,-0.0771,-0.0957,-0.1191,-0.1329,-0.1543,-0.0454,-0.0583,-0.0583,-0.0583,-0.0583,-0.0583,0,0.0897,0.0996,0.1148,0.1341,0.1513,0.1568,0.1812,0.1977,0.2207,0.235,0.2418,0.2105,0.1334,0.0512,-0.0647,-0.1338,-0.165,-0.1765,-0.2028,-0.2151,-0.118,-0.1191,-0.1438,-0.1438,-0.1437,-0.1437,-0.1436,-0.1436,0.094,0.1097,0.118,0.1469,0.1613,0.1865,0.2021,0.2256,0.2444,0.2626,0.2643,0.2575,0.1898,-0.0265,-0.1757,-0.2125,-0.274,-0.2885,-0.3184,-0.2528,-0.247,-0.2415,-0.2475,-0.2987,-0.2989,-0.4052,-0.4063,-0.4071]}],[{"header":{"parameterUnit":"m.s-1","parameterCategory":2,"la1":30.2991,"la2":30.254,"lo1":-89.0895,"lo2":-89.0444,"dy":0.0017,"dx":0.0017,"nx":28,"ny":28,"refTime":"2026-01-30T03:00:00:Z","depth":"2","parameterNumber":2,"parameterNumberName":"U-component_of_CURRENTS"},"data":[0,0,0,0,0,0,0,0,0,0,0,0,0,0,0,0,0,0,0,0,0,0,0,0,0,0,0,0,0,0,0,0,0,0,0,0,0,0,0,0,0,0,0,0,0,0,0,0,0,0,0,0,0,0,0,0,0,0,0.3915,0.3915,0,0.3927,0.3927,0.3927,0.3903,0.3903,0.3902,0.3902,0.3869,0.3869,0.3868,0,0,0,0,0,0,0,0,0,0,0,0,0,0.3865,0.3866,0.3915,0.3915,0.3916,0.3927,0.3927,0.3927,0.3903,0.3903,0.3902,0.3902,0.3869,0.3869,0.3868,0,0,0,0,0,0,0,0,0,0,0,0,0,0.388,0.3866,0.3915,0.3908,0.3907,0.3927,0.3927,0.3927,0.3903,0.3903,0.3902,0.3901,0.3869,0.3869,0.3868,0.3879,0,0,0.3866,0.3866,0,0,0,0,0,0,0,0,0.3879,0.3881,0.3908,0.3908,0.3908,0.3916,0.3898,0.391,0.3904,0.3902,0.3902,0.3901,0.3883,0.3881,0.3881,0.3877,0.3876,0.3866,0.3866,0.3865,0.3865,0,0,0,0,0,0,0,0.3878,0.3881,0.3916,0.3909,0.3909,0.3902,0.3903,0.39,0.3893,0.3902,0.3901,0.3907,0.3882,0.3882,0.388,0.3876,0.3866,0.3866,0.3865,0.3865,0.3915,0.3916,0,0,0,0,0,0,0.3884,0.388,0.3916,0.3917,0.3895,0.3904,0.3905,0.3911,0.3894,0.3892,0.3908,0.3906,0.3883,0.3881,0.3879,0.3917,0.3865,0.3865,0.3864,0.3913,0.3915,0.3917,0,0,0,0,0,0,0.3883,0.3887,0.3916,0.3901,0.3905,0.3906,0.3913,0.3912,0.3919,0.39,0.3896,0.3917,0.3883,0.388,0.389,0.3914,0.3865,0.3864,0.3911,0.3913,0.3916,0.3976,0,0,0,0,0,0,0.3882,0.3887,0.3893,0.3902,0.3906,0.3937,0.3914,0.3913,0.3925,0.3923,0.3906,0.3902,0.3882,0.3891,0.3889,0.3913,0.3863,0.3909,0.3912,0.3915,0.3972,0.3981,0.3988,0,0,0,0,0,0.388,0.3893,0.3894,0.3898,0.3915,0.3939,0.394,0.3936,0.3926,0.3937,0.3928,0.3903,0.391,0.3892,0.3889,0.3913,0.3907,0.3911,0.3915,0.3969,0.3979,0.3988,0,0,0,0,0,0,0.3876,0.3893,0.3893,0.3911,0.3929,0.3936,0.3946,0.3946,0.3948,0.3945,0.3921,0.3917,0.3939,0.3921,0.3902,0.394,0.3906,0.391,0.3948,0.3958,0.3965,0.3985,0.3863,0,0,0,0,0,0.388,0.3893,0.3911,0.3927,0.3937,0.3944,0.3953,0.3956,0.396,0.396,0.3948,0.3944,0.3953,0.395,0.3953,0.3968,0.3982,0.3985,0.3992,0.3999,0.4016,0.4058,0.4071,0.3929,0.3929,0.3929,0,0,0.388,0.3895,0.39,0.3927,0.3937,0.3963,0.3947,0.3971,0.3992,0.3957,0.3975,0.3972,0.3966,0.3987,0.3995,0.3973,0.405,0.4004,0.4009,0.4023,0.4063,0.4077,0.4089,0.3932,0.3931,0.3931,0,0,0.3896,0.3905,0.3923,0.3943,0.3972,0.3982,0.3993,0.4009,0.4015,0.4037,0.4025,0.4043,0.4039,0.4048,0.4051,0.4106,0.4095,0.4102,0.4149,0.419,0.4202,0.4212,0.4261,0.4275,0.4099,0.4099,0.4099,0,0.3899,0.3923,0.3933,0.3962,0.3981,0.3994,0.4023,0.4039,0.4055,0.4071,0.4051,0.4084,0.4074,0.4118,0.4136,0.4125,0.4146,0.411,0.42,0.4211,0.4221,0.4267,0.4283,0.4102,0.4102,0.4102,0.4101,0,0.3929,0.3951,0.3967,0.4005,0.4028,0.4057,0.4085,0.4107,0.4114,0.4131,0.4174,0.417,0.4191,0.4192,0.4179,0.4247,0.424,0.4209,0.4175,0.4239,0.4284,0.4299,0.4107,0.4106,0.4105,0.4104,0,0,0.3927,0.3977,0.3982,0.4002,0.4053,0.4073,0.412,0.4166,0.4209,0.422,0.4274,0.429,0.4295,0.4301,0.4291,0.4322,0.4411,0.4297,0.4298,0.4344,0.4514,0.4525,0.4542,0.4391,0.4394,0.4396,0.4522,0,0.3948,0.3995,0.4021,0.4068,0.4094,0.4126,0.4172,0.4217,0.4257,0.4315,0.4331,0.4382,0.4335,0.436,0.4383,0.4413,0.4451,0.4381,0.4447,0.445,0.445,0.456,0.4082,0.4156,0.4536,0.4539,0.4541,0,0.3969,0.3998,0.4042,0.4097,0.4114,0.4145,0.4222,0.4269,0.4359,0.4403,0.4455,0.4474,0.4538,0.4485,0.4563,0.452,0.4528,0.4539,0.4543,0.4544,0.4489,0.4152,0.4168,0.4565,0.4563,0.4561,0.456,0,0.3953,0.4011,0.4041,0.406,0.413,0.4154,0.4197,0.4288,0.435,0.4471,0.4532,0.4598,0.4646,0.4669,0.4683,0.4635,0.4772,0.4702,0.4722,0.4722,0.4327,0.4289,0.4765,0.4765,0.4765,0.4764,0.4764,0,0.3963,0.3986,0.4031,0.4047,0.4095,0.4147,0.4221,0.4293,0.4412,0.4495,0.457,0.4651,0.4694,0.4759,0.475,0.4805,0.4826,0.4772,0.477,0.4339,0.4303,0.4652,0.4638,0.4769,0.4768,0.4767,0.4766,0,0.3942,0.3973,0.4007,0.4066,0.4087,0.412,0.4225,0.4278,0.4412,0.4528,0.4573,0.4723,0.4827,0.4865,0.4938,0.4904,0.4947,0.4949,0.4462,0.4403,0.485,0.4837,0.5,0.5001,0.5003,0.5004,0.5005,0,0.3938,0.395,0.4005,0.4014,0.4036,0.4094,0.4129,0.4266,0.4337,0.4556,0.4603,0.4771,0.4864,0.5011,0.492,0.4937,0.5028,0.4583,0.4418,0.4901,0.4882,0.4866,0.4852,0.3902,0.3894,0.3887,0.3882,0,0.3917,0.3931,0.3949,0.3974,0.3997,0.4032,0.41,0.4165,0.4325,0.4437,0.4608,0.4718,0.4822,0.4634,0.4683,0.4627,0.4547,0.4462,0.5062,0.3959,0.3887,0.3863,0.3879,0.3823,0.3829,0.3833,0.3836,0.3839,0.3886,0.3884,0.3896,0.3911,0.393,0.3936,0.3932,0.3962,0.4054,0.4085,0.4378,0.4342,0.4377,0.4199,0.4095,0.3993,0.4313,0.4111,0.4119,0.4138,0.4031,0.3971,0.3901,0.3907,0.3913,0.3917,0.3921,0,0.3773,0.3813,0.3826,0.3813,0.3726,0.383,0.3871,0.3738,0.3694,0.3771,0.3815,0.3524,0.3431,0.3491,0.3206,0.3278,0.3124,0.3199,0.29,0.2964,0.3019,0.2843,0.2404,0.24,0.2396,0.2392,0,0,0.372,0.366,0.3658,0.3544,0.3572,0.3395,0.3382,0.3228,0.3175,0.3014,0.2956,0.3136,0.3359,0.278,0.2741,0.2522,0.2717,0.2435,0.3647,0.3354,0.3403,0.3546,0.3352,0,0,0,0,0]},{"header":{"parameterUnit":"m.s-1","parameterCategory":2,"la1":30.2991,"la2":30.254,"lo1":-89.0895,"lo2":-89.0444,"dy":0.0017,"dx":0.0017,"nx":28,"ny":28,"refTime":"2026-01-30T03:00:00:Z","depth":"2","parameterNumber":3,"parameterNumberName":"V-component_of_CURRENTS"},"data":[0,0,0,0,0,0,0,0,0,0,0,0,0,0,0,0,0,0,0,0,0,0,0,0,0,0,0,0,0,0,0,0,0,0,0,0,0,0,0,0,0,0,0,0,0,0,0,0,0,0,0,0,0,0,0,0,0,0,0.0065,0.0065,0,-0.0,-0.0001,-0.0002,-0.0059,-0.006,-0.006,-0.0061,-0.0148,-0.015,-0.0152,0,0,0,0,0,0,0,0,0,0,0,0,0,0.0065,0.0065,0.0065,0.0065,0.0064,-0.0,-0.0001,-0.0002,-0.0059,-0.006,-0.006,-0.0061,-0.0148,-0.015,-0.0152,0,0,0,0,0,0,0,0,0,0,0,0,0,0.0037,0.0066,0.0065,0.0029,0.0025,0.0,-0.0001,-0.0003,-0.0059,-0.006,-0.0061,-0.0061,-0.0147,-0.015,-0.0152,-0.0156,0,0,-0.0161,-0.0162,0,0,0,0,0,0,0,0,0.0039,0.0037,0.0035,0.0032,0.0027,-0.0021,-0.0033,-0.0054,-0.0059,-0.0029,-0.0061,-0.0062,-0.0106,-0.0112,-0.0125,-0.016,-0.0164,-0.0161,-0.0163,-0.0164,-0.0165,0,0,0,0,0,0,0,0.0041,0.0039,0.0037,0.0035,0.003,-0.0009,-0.0014,-0.0038,-0.0065,-0.0032,-0.0036,-0.0039,-0.0108,-0.0122,-0.0128,-0.0165,-0.0161,-0.0164,-0.0166,-0.0167,-0.021,-0.0209,0,0,0,0,0,0,0.0058,0.0042,0.0039,0.0035,0.0034,-0.0008,-0.0013,-0.0006,-0.0064,-0.0073,-0.0039,-0.0042,-0.0117,-0.0124,-0.0131,-0.0121,-0.0164,-0.0167,-0.0169,-0.021,-0.021,-0.0209,0,0,0,0,0,0,0.0059,0.0059,0.0042,0.0038,0.0033,-0.0007,0.0001,-0.0007,-0.0017,-0.0069,-0.0078,-0.004,-0.0118,-0.0127,-0.0144,-0.0126,-0.0168,-0.0171,-0.0211,-0.021,-0.0209,-0.0113,0,0,0,0,0,0,0.0059,0.006,0.0068,0.0039,0.0034,0.0042,0.0002,-0.0008,-0.0018,-0.0023,-0.0073,-0.0082,-0.0119,-0.0139,-0.0147,-0.013,-0.0173,-0.0212,-0.021,-0.0209,-0.0116,-0.0109,-0.0102,0,0,0,0,0,0.0059,0.0086,0.007,0.0069,0.0049,0.0044,0.0038,0.0004,-0.0017,-0.0011,-0.0048,-0.008,-0.0138,-0.0141,-0.015,-0.0134,-0.0212,-0.0211,-0.021,-0.012,-0.011,-0.0102,0,0,0,0,0,0,0.009,0.0081,0.0063,0.0085,0.0069,0.0035,0.0037,0.0014,-0.0012,-0.0019,-0.0071,-0.0081,-0.0093,-0.0126,-0.0127,-0.0145,-0.0182,-0.0182,-0.011,-0.0102,-0.0095,-0.0068,-0.0175,0,0,0,0,0,0.0102,0.0118,0.0097,0.0112,0.0109,0.0073,0.0065,0.0045,0.0019,0.0007,-0.0029,-0.0067,-0.0095,-0.0107,-0.0139,-0.0142,-0.0185,-0.014,-0.0132,-0.0126,-0.0111,-0.0165,-0.0161,-0.0205,-0.0205,-0.0205,0,0,0.0117,0.0114,0.0121,0.0119,0.0101,0.0118,0.0066,0.0066,0.0076,0.0002,0.0003,-0.0043,-0.0091,-0.0099,-0.0107,-0.0122,-0.0137,-0.0124,-0.0118,-0.0107,-0.0163,-0.0159,-0.0155,-0.0204,-0.0204,-0.0204,0,0,0.0164,0.0154,0.0184,0.0181,0.0169,0.0151,0.0157,0.013,0.0113,0.0106,0.0054,0.0024,-0.0016,-0.0046,-0.0067,-0.0036,-0.0099,-0.005,0.0014,-0.0038,-0.0035,-0.0033,-0.0082,-0.0085,-0.0043,-0.0042,-0.0042,0,0.018,0.022,0.0191,0.0221,0.0231,0.0176,0.0215,0.0192,0.0161,0.0158,0.012,0.0056,0.0011,0.0004,0.0011,-0.0018,-0.0059,-0.0013,-0.0028,-0.0026,-0.0026,-0.0077,-0.0081,-0.0038,-0.0038,-0.0039,-0.0039,0,0.0254,0.0281,0.03,0.0323,0.0328,0.0351,0.0325,0.0318,0.0286,0.0261,0.0236,0.0163,0.0129,0.0103,0.0067,0.0057,0.0022,-0.0015,-0.0046,-0.0015,-0.0072,-0.0078,-0.0031,-0.0032,-0.0034,-0.0035,0,0,0.0302,0.0346,0.0352,0.0387,0.0388,0.0406,0.042,0.0426,0.0446,0.038,0.0394,0.0322,0.027,0.0243,0.0181,0.0133,0.0095,0.0072,0.0067,0.0031,-0.002,-0.0051,-0.0062,0.0054,0.0053,0.0053,-0.0062,0,0.0369,0.0457,0.0456,0.0534,0.058,0.0545,0.0568,0.0559,0.0535,0.053,0.0435,0.042,0.0327,0.0312,0.0248,0.0138,0.0084,0.013,-0.0052,-0.0057,-0.0082,-0.0068,-0.0044,-0.0144,-0.0068,-0.0069,-0.007,0,0.0445,0.0498,0.0592,0.0655,0.067,0.07,0.0737,0.0756,0.0724,0.0703,0.0654,0.0576,0.05,0.0412,0.0232,0.0265,0.0138,0.0038,0.0031,-0.0033,-0.0099,-0.0165,-0.0159,-0.0081,-0.0081,-0.008,-0.0079,0,0.0511,0.0595,0.0679,0.07,0.0754,0.0782,0.0807,0.0806,0.0853,0.0818,0.0832,0.0709,0.0661,0.0482,0.0266,0.025,0.0059,0.0008,-0.0143,-0.0147,-0.0178,-0.0183,-0.0118,-0.0117,-0.0117,-0.0117,-0.0117,0,0.0592,0.0657,0.0716,0.0762,0.0865,0.0866,0.0966,0.0966,0.0993,0.1064,0.0931,0.0947,0.0676,0.0528,0.0313,0.0072,0.0089,-0.0124,-0.0175,-0.0144,-0.0145,-0.0132,-0.0132,-0.0121,-0.012,-0.0119,-0.0119,0,0.0656,0.0688,0.0796,0.087,0.0902,0.0979,0.1091,0.1165,0.1162,0.1247,0.1243,0.1128,0.0933,0.0647,0.0359,0.0153,-0.0087,-0.0179,-0.0123,-0.0165,-0.0272,-0.0266,-0.0356,-0.0358,-0.036,-0.0362,-0.0363,0,0.0697,0.0759,0.0885,0.0963,0.1001,0.1116,0.1202,0.125,0.135,0.1371,0.1427,0.1261,0.1188,0.0743,0.0335,-0.0053,-0.01,-0.0283,-0.0312,-0.0254,-0.0295,-0.0286,-0.0278,-0.0321,-0.0322,-0.0322,-0.0323,0,0.0782,0.0822,0.0914,0.1077,0.1185,0.1331,0.1459,0.1567,0.1627,0.1687,0.1748,0.1685,0.125,0.0859,0.0303,0.004,-0.0224,-0.0307,-0.0264,-0.0257,-0.0228,-0.0266,-0.0258,-0.0328,-0.0328,-0.0327,-0.0327,-0.0327,0.0844,0.0928,0.105,0.1208,0.1344,0.1525,0.1671,0.1786,0.1947,0.2022,0.1963,0.1839,0.14,0.0678,0.0229,-0.0266,-0.0242,-0.0417,-0.0412,-0.0407,-0.0375,-0.035,-0.0467,-0.0467,-0.0468,-0.0468,-0.0468,0,0.0934,0.1023,0.1174,0.1366,0.1537,0.1592,0.1833,0.1957,0.2135,0.2144,0.215,0.172,0.1249,0.0736,0.0012,-0.0394,-0.0421,-0.0532,-0.0474,-0.0465,-0.0459,-0.0427,-0.0535,-0.0536,-0.0537,-0.0539,0,0,0.098,0.1136,0.1219,0.1499,0.1637,0.1873,0.2027,0.2169,0.2235,0.2264,0.2159,0.1951,0.1368,0.0829,0.027,-0.0133,-0.0203,-0.0216,-0.012,0.0024,0.0035,-0.0354,-0.0291,0,0,0,0,0]}],[{"header":{"parameterUnit":"m.s-1","parameterCategory":2,"la1":30.2991,"la2":30.254,"lo1":-89.0895,"lo2":-89.0444,"dy":0.0017,"dx":0.0017,"nx":28,"ny":28,"refTime":"2026-01-30T03:00:00:Z","depth":"4","parameterNumber":2,"parameterNumberName":"U-component_of_CURRENTS"},"data":[0,0,0,0,0,0,0,0,0,0,0,0,0,0,0,0,0,0,0,0,0,0,0,0,0,0,0,0,0,0,0,0,0,0,0,0,0,0,0,0,0,0,0,0,0,0,0,0,0,0,0,0,0,0,0,0,0,0,0.2115,0.2116,0,0.2212,0.2213,0.2214,0.2285,0.2286,0.2287,0.2288,0.2395,0.2397,0.2399,0,0,0,0,0,0,0,0,0,0,0,0,0,0.1985,0.1987,0.2115,0.2116,0.2118,0.2212,0.2213,0.2214,0.2285,0.2286,0.2287,0.2288,0.2395,0.2397,0.24,0,0,0,0,0,0,0,0,0,0,0,0,0,0.2055,0.1987,0.2115,0.2166,0.2172,0.2212,0.2213,0.2214,0.2285,0.2286,0.2287,0.2289,0.2394,0.2397,0.24,0.2395,0,0,0.241,0.2411,0,0,0,0,0,0,0,0,0.2051,0.206,0.2157,0.2163,0.2169,0.224,0.2207,0.2276,0.2285,0.224,0.2288,0.2289,0.2345,0.2352,0.2364,0.24,0.2405,0.241,0.2412,0.2413,0.2414,0,0,0,0,0,0,0,0.2046,0.2056,0.2151,0.2159,0.2166,0.2182,0.2194,0.222,0.2283,0.2244,0.225,0.2264,0.2348,0.2361,0.2367,0.2406,0.241,0.2413,0.2415,0.2416,0.2592,0.2594,0,0,0,0,0,0,0.2038,0.2051,0.2148,0.2154,0.2115,0.2184,0.2196,0.2214,0.2282,0.2295,0.2262,0.2267,0.2355,0.2364,0.2372,0.2504,0.2413,0.2416,0.2418,0.2589,0.2592,0.2595,0,0,0,0,0,0,0.2035,0.2046,0.2144,0.2106,0.2121,0.2185,0.2204,0.2215,0.2278,0.2297,0.2309,0.2319,0.2356,0.2367,0.2446,0.2503,0.2418,0.242,0.2586,0.259,0.2594,0.2682,0,0,0,0,0,0,0.2031,0.2044,0.2076,0.2106,0.2122,0.22,0.2204,0.2216,0.2282,0.229,0.2348,0.2357,0.2358,0.2441,0.2449,0.2506,0.2423,0.2582,0.2588,0.2592,0.2675,0.2688,0.27,0,0,0,0,0,0.2026,0.2056,0.2077,0.209,0.2157,0.2202,0.2213,0.226,0.2284,0.2319,0.2367,0.2358,0.248,0.2446,0.2454,0.2514,0.258,0.2586,0.2592,0.267,0.2686,0.2699,0,0,0,0,0,0,0.2019,0.2068,0.2091,0.2137,0.2183,0.2216,0.2261,0.2287,0.2352,0.2377,0.239,0.2403,0.2495,0.2493,0.2455,0.2581,0.2529,0.2538,0.2586,0.2601,0.2613,0.2619,0.2425,0,0,0,0,0,0.203,0.2072,0.2114,0.2159,0.2186,0.2233,0.2267,0.23,0.2348,0.238,0.2422,0.247,0.2518,0.2552,0.2589,0.2654,0.2656,0.27,0.2712,0.2722,0.2735,0.2784,0.2802,0.2616,0.2616,0.2616,0,0,0.2041,0.2075,0.2101,0.2162,0.2204,0.2252,0.2258,0.2326,0.238,0.238,0.2483,0.2519,0.2546,0.2626,0.2666,0.2637,0.2779,0.273,0.2738,0.2745,0.2793,0.281,0.2826,0.262,0.2619,0.2619,0,0,0.2067,0.2117,0.2157,0.22,0.2273,0.2301,0.2331,0.2396,0.2446,0.2532,0.2554,0.2628,0.2698,0.2731,0.2753,0.2855,0.2843,0.2875,0.2941,0.299,0.3005,0.3019,0.3049,0.3064,0.2879,0.2879,0.2879,0,0.2083,0.2134,0.2177,0.2226,0.2273,0.2328,0.2382,0.2436,0.2523,0.2572,0.2583,0.272,0.2746,0.2837,0.288,0.2883,0.2903,0.288,0.3005,0.3018,0.303,0.3058,0.3074,0.2884,0.2883,0.2883,0.2882,0,0.2122,0.2184,0.2216,0.2296,0.235,0.2411,0.2481,0.2556,0.2624,0.2672,0.2798,0.2843,0.2922,0.2946,0.2948,0.3057,0.3041,0.3014,0.2962,0.3054,0.3078,0.3093,0.2891,0.2889,0.2888,0.2886,0,0,0.21,0.2219,0.2237,0.2289,0.2397,0.244,0.2546,0.2643,0.2728,0.2817,0.2922,0.3013,0.3052,0.308,0.3101,0.3147,0.3253,0.313,0.313,0.3151,0.3363,0.3147,0.3142,0.3252,0.3255,0.3258,0.3346,0,0.2124,0.2215,0.2277,0.2383,0.2435,0.2528,0.2618,0.272,0.2818,0.2934,0.3003,0.3115,0.3098,0.3164,0.3208,0.3253,0.3297,0.3232,0.3279,0.3281,0.307,0.3153,0.3268,0.3357,0.336,0.3362,0.3364,0,0.2133,0.2198,0.2297,0.2431,0.2468,0.2547,0.2709,0.2801,0.2961,0.3045,0.3159,0.322,0.3334,0.3297,0.3407,0.3372,0.3383,0.3395,0.3398,0.3174,0.3091,0.3247,0.3391,0.3388,0.3387,0.3385,0.3383,0,0.2073,0.2211,0.2293,0.2339,0.2496,0.2579,0.2679,0.2842,0.2942,0.3136,0.3227,0.3351,0.3439,0.3481,0.3512,0.3484,0.3605,0.3558,0.3369,0.3354,0.3481,0.3466,0.3626,0.3626,0.3625,0.3625,0.3625,0,0.2045,0.2118,0.2283,0.2326,0.2447,0.2571,0.2722,0.2845,0.3029,0.3138,0.3287,0.3374,0.3495,0.3566,0.3566,0.3509,0.3648,0.3395,0.3366,0.3517,0.3505,0.3491,0.3475,0.3628,0.3628,0.3627,0.3626,0,0.1958,0.2065,0.2169,0.2351,0.242,0.2512,0.2735,0.2829,0.3028,0.3179,0.325,0.3436,0.3519,0.3593,0.3672,0.3557,0.354,0.3482,0.3656,0.3633,0.3245,0.3233,0.3278,0.3271,0.3266,0.3261,0.3257,0,0.1913,0.1961,0.2166,0.2231,0.2325,0.2484,0.2582,0.2807,0.2902,0.3171,0.3212,0.3388,0.3473,0.3408,0.3506,0.3493,0.3442,0.3412,0.3307,0.3244,0.3213,0.3209,0.3204,0.3248,0.3246,0.3244,0.3243,0,0.1825,0.1921,0.2005,0.214,0.2259,0.2372,0.2534,0.2588,0.2827,0.3032,0.3099,0.3144,0.3228,0.3266,0.3285,0.3265,0.342,0.3351,0.3361,0.3263,0.3208,0.3181,0.3183,0.3223,0.3226,0.3228,0.3229,0,0.1764,0.1796,0.1917,0.202,0.2154,0.2211,0.2322,0.2424,0.2546,0.2831,0.2844,0.3017,0.3192,0.3149,0.3166,0.3136,0.3075,0.2957,0.2987,0.301,0.2878,0.2766,0.2632,0,0,0,0,0,0.1682,0.1699,0.1783,0.1876,0.1998,0.2072,0.2258,0.2369,0.2598,0.257,0.2701,0.2761,0.2799,0.2894,0.2804,0.3044,0.3087,0.2927,0.2966,0.3112,0.3135,0.3002,0,0,0,0,0,0,0.1624,0.1693,0.1723,0.173,0.176,0.1869,0.1974,0.2131,0.2133,0.2371,0.2404,0.2582,0.2658,0.2805,0.2743,0.2771,0.2736,0.3044,0.3037,0.3099,0.312,0.3139,0.301,0,0,0,0,0]},{"header":{"parameterUnit":"m.s-1","parameterCategory":2,"la1":30.2991,"la2":30.254,"lo1":-89.0895,"lo2":-89.0444,"dy":0.0017,"dx":0.0017,"nx":28,"ny":28,"refTime":"2026-01-30T03:00:00:Z","depth":"4","parameterNumber":3,"parameterNumberName":"V-component_of_CURRENTS"},"data":[0,0,0,0,0,0,0,0,0,0,0,0,0,0,0,0,0,0,0,0,0,0,0,0,0,0,0,0,0,0,0,0,0,0,0,0,0,0,0,0,0,0,0,0,0,0,0,0,0,0,0,0,0,0,0,0,0,0,0.0339,0.0338,0,0.0291,0.0291,0.029,0.026,0.026,0.026,0.026,0.0198,0.0197,0.0195,0,0,0,0,0,0,0,0,0,0,0,0,0,0.035,0.035,0.0339,0.0338,0.0338,0.0292,0.0291,0.029,0.026,0.026,0.026,0.026,0.0199,0.0197,0.0195,0,0,0,0,0,0,0,0,0,0,0,0,0,0.0327,0.035,0.0339,0.0318,0.0316,0.0292,0.0291,0.029,0.026,0.026,0.026,0.026,0.0199,0.0197,0.0195,0.0183,0,0,0.0188,0.0187,0,0,0,0,0,0,0,0,0.0329,0.0327,0.0322,0.0319,0.0317,0.0282,0.0272,0.0254,0.026,0.028,0.026,0.026,0.0226,0.0221,0.0212,0.0181,0.0178,0.0188,0.0186,0.0185,0.0185,0,0,0,0,0,0,0,0.033,0.0328,0.0319,0.0321,0.0318,0.0293,0.029,0.0268,0.0253,0.0279,0.0276,0.0273,0.0224,0.0214,0.021,0.0177,0.0188,0.0186,0.0184,0.0183,0.0128,0.0128,0,0,0,0,0,0,0.0341,0.033,0.0321,0.0318,0.0323,0.0293,0.0289,0.0293,0.0254,0.0248,0.0273,0.0271,0.0218,0.0213,0.0208,0.0204,0.0185,0.0183,0.0182,0.0128,0.0128,0.0128,0,0,0,0,0,0,0.0342,0.0341,0.0323,0.0323,0.0319,0.0293,0.0297,0.0292,0.0287,0.025,0.0244,0.0274,0.0218,0.0211,0.0195,0.0201,0.0182,0.018,0.0128,0.0128,0.0128,0.0188,0,0,0,0,0,0,0.0342,0.0342,0.035,0.0324,0.032,0.0318,0.0297,0.0291,0.0285,0.0283,0.0248,0.0242,0.0217,0.0198,0.0192,0.0197,0.0178,0.0128,0.0128,0.0128,0.0186,0.019,0.0193,0,0,0,0,0,0.0343,0.0359,0.0351,0.0349,0.0331,0.0318,0.0314,0.0293,0.0285,0.0287,0.0263,0.0244,0.0193,0.0197,0.019,0.0194,0.0129,0.0128,0.0128,0.0185,0.0189,0.0193,0,0,0,0,0,0,0.0367,0.0356,0.0347,0.0358,0.0343,0.0314,0.0316,0.03,0.0282,0.0282,0.0246,0.0238,0.0224,0.02,0.0205,0.0176,0.0156,0.0154,0.0201,0.0205,0.0209,0.0229,0.0176,0,0,0,0,0,0.0377,0.0386,0.0366,0.0374,0.0371,0.0344,0.0337,0.0324,0.0303,0.0295,0.027,0.0242,0.0216,0.0205,0.0179,0.0168,0.0131,0.0163,0.0167,0.017,0.018,0.0126,0.0126,0.0128,0.0128,0.0128,0,0,0.0389,0.0383,0.0389,0.038,0.0367,0.0372,0.034,0.0337,0.0338,0.0292,0.0288,0.0255,0.0216,0.0201,0.0192,0.0183,0.0149,0.017,0.0174,0.0182,0.0126,0.0126,0.0125,0.0127,0.0127,0.0128,0,0,0.0418,0.0413,0.0431,0.0424,0.0412,0.0397,0.04,0.0376,0.0363,0.0352,0.0317,0.029,0.0256,0.0227,0.0208,0.0215,0.0169,0.0204,0.0241,0.0188,0.0188,0.0187,0.0137,0.0132,0.0207,0.0207,0.0207,0,0.0433,0.0454,0.0433,0.0447,0.0451,0.0414,0.0434,0.0414,0.0387,0.038,0.0361,0.0302,0.0268,0.0244,0.0246,0.0224,0.0188,0.0231,0.0194,0.0192,0.019,0.014,0.0133,0.021,0.021,0.021,0.0209,0,0.0473,0.0491,0.0501,0.0511,0.051,0.0521,0.0496,0.0487,0.0467,0.0444,0.0415,0.0359,0.0327,0.0304,0.028,0.0252,0.0227,0.0205,0.0187,0.0194,0.014,0.0131,0.0214,0.0213,0.0212,0.0212,0,0,0.0507,0.0528,0.0533,0.0555,0.0548,0.0556,0.0556,0.0549,0.0557,0.0506,0.0505,0.0443,0.0409,0.0384,0.0336,0.0288,0.0239,0.025,0.0246,0.0209,0.0123,0.0106,0.0095,0.021,0.0209,0.0208,0.0089,0,0.0547,0.0595,0.0593,0.064,0.0665,0.064,0.0646,0.0631,0.0609,0.0595,0.0519,0.05,0.0439,0.0427,0.0366,0.0275,0.0221,0.0274,0.0115,0.011,0.0101,0.0086,0.0205,0.0083,0.0081,0.0079,0.0078,0,0.0591,0.062,0.0678,0.0714,0.0723,0.0744,0.0759,0.0762,0.0724,0.0705,0.066,0.0601,0.0526,0.0473,0.0311,0.0348,0.0247,0.0165,0.0158,0.0119,0.0079,0.0072,0.0062,0.0064,0.0065,0.0066,0.0067,0,0.0634,0.0682,0.0737,0.0749,0.0777,0.0799,0.0814,0.08,0.082,0.0782,0.0784,0.0676,0.063,0.0485,0.0314,0.0313,0.0127,0.0103,-0.0013,-0.0016,0.0009,0.0011,-0.0013,-0.0013,-0.0013,-0.0013,-0.0012,0,0.068,0.0725,0.0766,0.0796,0.0865,0.0861,0.0927,0.0918,0.0921,0.0951,0.0852,0.0833,0.0632,0.0499,0.0336,0.0135,0.0138,-0.0008,-0.0048,0.0036,0.0043,0.0003,0.0006,-0.0017,-0.0016,-0.0015,-0.0015,0,0.0719,0.0743,0.0813,0.0863,0.0892,0.0942,0.102,0.1059,0.1048,0.1081,0.1073,0.095,0.0771,0.0557,0.0316,0.0175,-0.002,-0.0092,0.0017,-0.0015,-0.0133,-0.0126,-0.023,-0.0231,-0.0233,-0.0234,-0.0235,0,0.0741,0.0782,0.0874,0.0928,0.0961,0.1043,0.11,0.1125,0.1171,0.1148,0.116,0.1007,0.0895,0.0543,0.031,-0.0012,-0.006,-0.0162,-0.0153,-0.0127,-0.0156,-0.0146,-0.0137,-0.0237,-0.0237,-0.0238,-0.0238,0,0.0785,0.0821,0.0879,0.0995,0.1076,0.1171,0.1253,0.1292,0.131,0.1304,0.1226,0.1036,0.083,0.0546,0.0294,0.0063,-0.0096,-0.0177,-0.0176,-0.0169,-0.0137,-0.0162,-0.0151,-0.0243,-0.0242,-0.0241,-0.0241,0,0.082,0.0869,0.0952,0.1053,0.1161,0.1256,0.13,0.1337,0.1372,0.1332,0.1301,0.1069,0.0936,0.0584,0.0352,0.0121,0.0059,-0.0016,-0.0024,-0.0022,0.0068,0.014,0.0086,0,0,0,0,0,0.0848,0.0906,0.1004,0.1113,0.1222,0.1293,0.1381,0.1409,0.1423,0.1379,0.1342,0.1145,0.0787,0.0632,0.0398,0.0319,0.0017,0.0035,-0.0074,-0.0268,-0.0263,-0.0195,0,0,0,0,0,0,0.0865,0.0957,0.1003,0.1144,0.1232,0.1359,0.142,0.1433,0.1404,0.1375,0.119,0.109,0.0745,0.0929,0.0398,0.0326,0.0223,-0.0131,-0.0136,-0.0271,-0.0266,-0.0262,-0.019,0,0,0,0,0]}]]